Simultaneous Nadir Overpasses (SNOs) Predictions

Prediction of SNOs between LANDSAT-8 and METOP-B Satellite Orbit:

Table of predicted SNOs for the next 14.0 days since TLE Epoch: 4/28/2018
Index Date (LANDSAT-8) Time (LANDSAT-8) Lat,Lon (LANDSAT-8) SZA (LANDSAT-8 ) Date (METOP-B) Time (METOP-B) Lat,Lon (METOP-B) SZA (METOP-B ) Distance(km) Time Diff (sec)
1 04/30/2018 02:52:29 -81.14, -3.67 111.45 04/30/2018 02:51:15 -81.14, -3.62 111.48 0.78 74
2 04/30/2018 03:41:54 81.17, 164.44 68.61 04/30/2018 03:41:53 81.17, 164.62 68.63 3.14 1
3 04/30/2018 04:31:20 -81.19, -27.64 111.36 04/30/2018 04:32:33 -81.18, -27.62 111.33 0.52 73
4 05/02/2018 22:26:43 -81.13, 62.65 112.31 05/02/2018 22:25:36 -81.14, 62.79 112.32 2.59 67
5 05/02/2018 23:16:08 81.16,-129.28 67.75 05/02/2018 23:16:15 81.16,-129.39 67.74 1.99 7
6 05/05/2018 18:00:56 -81.14, 129.28 113.08 05/05/2018 17:59:57 -81.14, 129.18 113.12 1.95 59
7 05/05/2018 18:50:21 81.17, -62.66 66.97 05/05/2018 18:50:35 81.17, -62.66 66.98 0.48 14
8 05/08/2018 13:35:09 -81.13,-164.47 113.88 05/08/2018 13:34:17 -81.14,-164.45 113.90 0.74 52
9 05/08/2018 14:24:34 81.16, 3.55 66.17 05/08/2018 14:24:55 81.16, 3.67 66.20 2.21 21
10 05/11/2018 09:09:22 -81.14, -97.90 114.60 05/11/2018 09:08:38 -81.14, -98.09 114.64 3.29 44




NCC Satellite Simultaneous Nadir Overpasses (SNOs) Prediction Service
